Location: Górna Wie?
(50.1650°N, 19.9372°E)
Time: 14:42:05
(UTC+00:00)

Daily predictions for brighter satellites

Satellite Brightness Start Highest point End
(mag) Time Altitude Azimuth Time Altitude Azimuth Time Altitude Azimuth
Meteor 1-24 Rocket 4.4 19:21:53 10° SSW 19:27:11 59° WNW 19:32:42 10° N
Spot 2 Rocket 3.9 19:24:54 10° SE 19:29:50 51° ENE 19:34:47 10° N
USA 32 4.3 19:24:56 10° S 19:30:09 77° W 19:35:25 10° N
Nadezhda 1 Rocket 4.4 19:24:42 10° SSE 19:30:23 44° E 19:36:06 10° NNE
Cosmos 2084 Rocket 3.3 19:29:04 10° NW 19:32:58 86° SW 19:37:01 10° SE
Lacrosse 5 4.2 19:30:34 10° W 19:33:20 15° WSW 19:36:07 10° SSW
Helios 1A Rocket 3.5 19:29:30 10° SE 19:33:22 43° ENE 19:37:18 10° N
GEOS 3 Rocket 4.2 19:29:24 10° SSE 19:34:21 51° SW 19:39:21 10° NW
SPOT 1/Viking Rocket 4.2 19:34:09 10° S 19:39:11 55° W 19:44:18 10° NNW
ERS-1 Rocket 3.2 19:42:37 10° SSE 19:47:35 62° ENE 19:52:33 10° N
Cosmos 1452 Rocket 3.8 19:42:56 10° SSW 19:48:11 74° WNW 19:53:28 10° NNE
Meteor 1-21 Rocket 4.3 19:43:41 10° S 19:49:13 63° E 19:54:54 10° NNE
Cosmos 1110 Rocket 4.0 19:46:26 10° SSW 19:51:42 81° ESE 19:57:03 10° NNE
X-37B 2.4 19:50:47 10° WSW 19:52:32 15° SSW 19:54:15 10° SSE
Cosmos 2154 Rocket 4.0 19:46:28 10° N 19:52:43 83° E 19:58:55 10° S
Cosmos 1892 4.2 19:51:38 10° SE 19:54:24 20° E 19:57:14 10° NE
Cosmos 1302 Rocket 4.5 19:49:54 10° S 19:54:45 41° ESE 19:59:37 10° NE
Cosmos 2228 3.2 19:53:23 10° NNW 19:57:37 72° W 20:01:50 10° S
Cosmos 968 Rocket 3.6 19:56:20 10° NNW 20:01:34 75° ENE 20:06:30 12° SSE
Cosmos 1697 Rocket 3.2 19:56:47 10° NW 20:02:16 55° WSW 20:07:44 10° S
Cosmos 1980 Rocket 2.3 19:57:16 10° NNW 20:03:02 84° ENE 20:08:21 12° SSE
Cosmos 1892 Rocket 4.0 20:01:02 10° SSE 20:05:10 43° E 20:09:19 10° NNE
SL-16 R/B 3.5 20:00:18 10° NNW 20:05:24 32° NE 20:10:28 10° ESE
Cosmos 2369 3.8 20:05:32 10° NNW 20:11:18 79° WSW 20:16:35 12° SSE
ATLAS 5 CENTAUR R/B 2.5 20:09:31 11° SSE 20:12:10 22° ESE 20:15:21 10° ENE
Cosmos 2058 Rocket 3.5 20:08:02 10° N 20:12:22 51° ENE 20:16:04 14° SSE
CZ-2C R/B 3.8 20:11:20 10° NNE 20:15:51 60° ESE 20:20:16 10° S
Meteor 2-1 Rocket 4.4 20:11:03 10° NNW 20:16:33 72° W 20:22:05 10° S
Cosmos 2344 4.4 20:08:14 10° NW 20:17:02 76° SW 20:28:17 13° SSE
Cosmos 1408 3.0 20:14:47 14° SSE 20:17:23 39° E 20:20:39 10° NNE
Resurs 01 Rocket 4.0 20:14:16 10° SW 20:17:31 20° W 20:20:47 10° NW
COSMOS 2406 3.2 20:16:09 10° SSW 20:21:55 83° ESE 20:27:42 10° NNE
SJ 16-02 3.2 20:19:20 10° N 20:22:48 22° NE 20:26:13 10° ESE
Cosmos 1833 Rocket 3.3 20:22:08 10° SW 20:27:40 59° NW 20:33:15 10° NNE
Cosmos 2366 rocket 4.4 20:22:09 10° N 20:28:24 55° ENE 20:33:35 15° SSE
Cosmos 1867 3.8 20:24:53 10° NW 20:30:18 63° SW 20:34:38 16° SSE
Cosmos 2218 Rocket 4.3 20:28:25 10° N 20:34:48 61° ENE 20:39:56 16° SSE
Cosmos 1825 3.1 20:33:23 18° SE 20:35:28 31° E 20:38:50 10° NNE
Cosmos 1606 Rocket 4.4 20:31:24 10° NNW 20:35:33 45° W 20:39:41 10° SSW
Cosmos 2322 Rocket 3.2 20:34:19 10° NNW 20:39:40 40° NE 20:44:41 11° ESE
Cosmos 1869 3.8 20:36:43 10° N 20:40:30 47° ENE 20:42:59 20° SE
Meteor 1-27 4.4 20:35:22 10° N 20:40:55 64° ENE 20:45:09 18° SSE
CZ-4B R/B 4.4 20:43:19 10° NW 20:44:17 11° WNW 20:45:15 10° W
USA 234 3.8 20:38:24 10° E 20:44:49 59° NNE 20:51:15 10° WNW
GP-B 3.2 20:41:26 10° N 20:45:52 65° E 20:49:00 19° SSE
ARIANE 5 R/B 2.9 20:44:14 16° S 20:47:47 65° WSW 20:52:11 10° NNW
Terra 2.5 20:44:04 12° S 20:48:16 50° W 20:52:55 10° NNW
SPOT 5 4.1 20:47:18 10° SSW 20:51:09 31° W 20:55:01 10° NNW
Cosmos 2278 3.8 20:47:31 10° NNW 20:53:14 71° WSW 20:57:25 19° SSE
SAR-Lupe-4 3.9 20:49:58 10° NNE 20:53:26 46° E 20:55:18 23° SSE
Cosmos 2341 Rocket 4.1 20:47:42 10° NNW 20:54:02 76° W 20:59:17 15° S
Cosmos 864 Rocket 4.5 20:48:57 10° N 20:55:11 80° E 20:59:56 18° SSE
USA 276 2.2 20:52:41 10° W 20:55:38 51° SSW 20:56:54 28° SE
FALCON 9 DEB 3.5 20:53:38 10° WNW 20:56:45 41° SSW 20:58:00 27° SSE
Cosmos 2333 Rocket 3.8 20:55:11 10° NNW 21:00:06 28° NE 21:05:02 10° ESE
Cosmos 1992 Rocket 4.0 20:57:38 13° S 21:02:17 69° ESE 21:07:31 10° NNE
Meteor 1-11 4.4 20:58:56 10° SSW 21:04:31 73° WNW 21:10:07 10° N
Cosmos 2082 Rocket 2.6 21:00:06 10° SW 21:05:48 68° WNW 21:11:30 10° NNE
Cosmos 1486 Rocket 4.1 21:01:02 10° NNW 21:06:15 73° WSW 21:09:45 21° S
Cosmos 1633 3.3 21:05:14 25° SE 21:06:30 34° E 21:09:40 10° NNE
Okean 1-7 Rocket 3.6 21:03:33 20° S 21:06:37 74° E 21:11:08 10° NNE
Cosmos 1758 Rocket 4.5 21:05:17 22° SE 21:07:23 34° E 21:11:23 10° NNE
ASTEX 1 3.4 21:02:46 10° N 21:07:48 86° W 21:11:39 17° S
SAR-Lupe-1 4.0 21:06:39 10° NNE 21:10:15 82° ESE 21:12:24 23° S
ADEOS Rocket 4.1 21:06:16 15° SE 21:12:18 50° ENE 21:19:42 10° N
Cosmos 2360 Rocket 3.0 21:08:47 10° NNW 21:14:16 46° NE 21:18:47 15° ESE
Cosmos-2242 3.4 21:11:57 10° N 21:16:07 51° ENE 21:18:22 25° SE
Cosmos 1812 Rocket 3.7 21:12:06 10° N 21:16:33 66° ENE 21:19:01 25° SSE
Gbstr 26 Del rocket 4.1 21:16:36 24° SE 21:16:48 24° SE 21:20:36 10° E
Cosmos 1606 3.6 21:14:01 10° N 21:17:38 37° ENE 21:19:29 23° SE
Cosmos 807 3.9 21:18:15 10° N 21:21:16 85° ENE 21:22:13 39° SSE
Cosmos 2181 Rocket 4.1 21:17:08 15° SSW 21:22:26 80° W 21:28:46 10° N
Cosmos 1821 Rocket 4.1 21:16:28 10° N 21:22:41 67° ENE 21:26:44 22° SSE
Cosmos 1892 4.0 21:26:27 11° SW 21:29:43 35° WNW 21:33:15 10° N
Cosmos 1602 Rocket 3.5 21:28:28 26° S 21:30:49 75° E 21:35:09 10° NNE
Cosmos 1354 Rocket 4.0 21:30:49 10° NNW 21:36:09 81° WSW 21:39:12 26° SSE
Cosmos 44 4.4 21:35:47 22° SE 21:36:31 23° ESE 21:40:05 10° ENE
Cosmos 2237 4.2 21:31:09 10° NNW 21:36:56 89° ENE 21:40:30 24° SSE
Cosmos 1503 Rocket 4.3 21:39:27 10° NNW 21:44:39 58° WSW 21:47:32 26° S
Spot 4 3.8 21:42:42 27° SSE 21:45:19 84° WSW 21:50:09 10° NNW
Cosmos 1980 Rocket 4.1 21:42:31 10° WNW 21:46:17 18° W 21:50:02 10° SW
ALOS 2 2.8 21:44:13 28° SE 21:46:27 65° ENE 21:50:49 10° N
COSMOS 2428 4.3 21:41:36 10° NNW 21:46:39 31° NE 21:51:40 10° ESE
Nadezhda 3 Rocket 4.0 21:43:20 24° S 21:47:09 68° E 21:53:16 10° NNE
ERS-2 3.8 21:45:13 10° NE 21:47:55 20° E 21:48:35 19° ESE
SL-16 R/B 2.5 21:44:17 10° NW 21:49:50 57° WSW 21:52:57 26° S
Cosmos 1777 Rocket 4.0 21:44:37 10° NNW 21:49:57 89° ENE 21:52:54 27° SSE
Cosmos 2219 Rocket 3.2 21:44:41 10° NNW 21:50:02 40° NE 21:55:00 12° ESE
USA 267 3.3 21:45:42 10° ENE 21:52:09 58° SE 21:58:35 10° SW
Cosmos 1626 Rocket 4.4 21:50:06 17° SW 21:53:11 45° WNW 21:57:24 10° N
H-2A R/B 3.7 21:50:37 10° NNE 21:54:45 54° E 21:56:24 32° SSE
Cosmos 2058 3.2 21:53:50 32° SSE 21:55:29 55° E 21:59:36 10° NNE
ATLAS 5 CENTAUR R/B 2.2 21:52:33 10° WSW 21:56:17 50° NW 22:00:34 10° NE
Cosmos 1953 Rocket 4.2 21:55:55 28° SE 21:57:40 41° E 22:01:50 10° NNE
Meteor 2-2 Rocket 4.5 21:51:40 10° N 21:57:42 74° ENE 22:01:20 25° SSE
SJ 16-02 1.6 21:57:20 10° NNW 22:01:42 56° WSW 22:03:35 31° S
SL-4 R/B 1.7 22:04:44 42° SSW 22:05:25 50° SSE 22:08:59 10° ENE
Cosmos 1825 Rocket 3.5 22:04:05 33° S 22:05:58 76° E 22:10:19 10° NNE
Cosmos 1825 4.2 22:08:00 11° WSW 22:10:52 23° WNW 22:13:54 10° NNW
Cosmos 2221 3.0 22:09:08 10° N 22:13:24 52° ENE 22:15:26 28° SE
Cosmos 2322 Rocket 2.8 22:18:26 10° NW 22:23:47 44° WSW 22:26:28 26° SSW
Cosmos 1842 Rocket 4.0 22:21:48 10° N 22:26:12 54° ENE 22:28:20 28° SE
OPS 8737 4.5 22:25:35 28° SW 22:27:34 85° SE 22:30:50 10° NE
USA 234 3.2 22:22:04 14° SE 22:27:47 73° SW 22:34:22 10° WNW
Cosmos 1934 Rocket 4.0 22:25:09 10° NNW 22:31:16 78° W 22:34:46 27° S
CRYOSAT 2 4.4 22:29:27 30° SSE 22:31:51 73° E 22:36:44 10° N
BREEZE-M DEB (TANK) 4.3 22:34:55 10° W 22:38:53 63° SSW 22:56:23 10° ESE
Celestis-02/Orion 38 4.5 22:37:02 26° SSE 22:39:58 87° WSW 22:45:05 10° NNW
Cosmos 1763 Rocket 4.1 22:41:35 28° SSE 22:43:50 45° ESE 22:48:53 10° NE
Resurs 1-4 Rocket 4.4 22:42:29 10° ENE 22:44:22 12° E 22:46:14 10° ESE
Cosmos 2333 Rocket 2.2 22:39:11 10° NNW 22:44:57 72° WSW 22:48:05 28° SSE
Cosmos 1933 3.6 22:43:31 10° N 22:47:30 62° ENE 22:49:07 33° SE
USA 290 2.8 22:44:36 10° NNW 22:47:47 52° ENE 22:48:53 33° ESE
Cosmos 1812 3.5 22:49:07 10° N 22:52:48 43° ENE 22:54:29 26° SE
COSMOS 2487 2.1 22:52:54 56° SE 22:53:13 61° ESE 22:56:15 10° NNE
Cosmos 990 Rocket 3.9 22:49:30 10° NNW 22:54:41 87° WSW 22:57:26 28° SSE
Cosmos 972 4.4 22:49:58 10° NNW 22:55:00 86° WSW 22:57:53 28° SSE
ADEOS Rocket 4.1 22:53:13 22° SSW 22:57:46 46° W 23:05:14 10° NNW
Cosmos 2360 Rocket 3.0 22:53:01 10° NW 22:58:10 37° WSW 23:00:32 26° SSW
CZ-2D R/B 4.3 22:56:52 10° NE 22:59:49 15° E 23:02:45 10° ESE
Cosmos 1340 Rocket 3.6 22:58:42 26° SW 23:00:28 42° WNW 23:04:18 10° N
ISS -3.6 23:00:48 50° SSE 23:00:50 50° SSE 23:04:07 10° ENE
SL-23 DEB 4.2 23:02:39 32° SE 23:02:39 32° SE 23:05:05 10° E
Cosmos 1727 Rocket 4.3 22:58:59 25° SSE 23:02:43 58° E 23:08:51 10° NNE
Gbstr 26 Del rocket 3.1 22:59:00 12° WSW 23:03:02 80° SSE 23:08:26 10° ENE
Cosmos 2227 Rocket 4.4 23:01:44 10° ESE 23:03:49 12° E 23:05:54 10° ENE
Meteor 2-3 Rocket 3.7 23:04:49 29° S 23:07:48 78° E 23:13:24 10° NNE
Cosmos 1076 Rocket 3.5 23:09:44 35° S 23:11:33 84° E 23:15:57 10° NNE
Cosmos 540 Rocket 3.9 23:10:08 28° SSE 23:12:30 48° ESE 23:17:27 10° NNE
Cosmos 468 Rocket 4.1 23:10:37 30° S 23:13:15 68° ESE 23:18:34 10° NNE
BREEZE-M DEB (TANK) 3.0 23:12:24 36° SW 23:13:28 58° SSE 23:20:19 10° E
SL-27 R/B 2.4 23:13:18 42° SW 23:14:12 65° WNW 23:17:28 10° NNE
SL-16 R/B 4.1 23:09:34 10° ESE 23:15:00 32° ENE 23:20:25 10° N
NOSS 3-2 (A) 3.7 23:13:40 28° S 23:16:20 49° ESE 23:22:26 10° NE
Cosmos 44 3.5 23:14:09 18° WSW 23:17:24 59° NW 23:21:48 10° NE
Cosmos 2100 Rocket 4.3 23:13:37 10° N 23:20:00 66° ENE 23:24:35 19° SSE
Cosmos 1782 2.8 23:16:55 10° NNW 23:20:53 72° W 23:22:20 37° S
ERS-2 3.2 23:18:04 10° N 23:21:23 36° WNW 23:22:56 24° WSW
Cosmos 2173 Rocket 4.3 23:16:02 10° N 23:22:24 66° ENE 23:27:07 19° SSE
Cosmos 1862 4.3 23:21:22 25° SE 23:23:02 37° E 23:26:42 10° NNE
Cosmos 1605 Rocket 4.4 23:18:37 10° NNW 23:24:48 52° W 23:28:27 24° SSW
Lacrosse 4 Rocket 4.1 23:22:01 10° N 23:25:00 19° NE 23:27:59 10° E
Cosmos 2237 Rocket 2.9 23:19:25 10° NNW 23:25:00 54° NE 23:30:31 10° SE
CENTAUR R/B 2.8 23:22:31 27° S 23:25:43 55° ESE 23:32:37 10° NE
COSMOS 2428 2.8 23:25:39 10° NW 23:31:19 62° WSW 23:34:37 25° S
Cosmos 2297 Rocket 3.4 23:29:19 18° SSE 23:32:22 29° ESE 23:37:11 10° NE
Cosmos 2151 3.0 23:31:03 33° SSW 23:32:57 77° WNW 23:37:17 10° N
Cosmos 2219 Rocket 2.7 23:28:43 10° NW 23:34:03 43° WSW 23:36:41 26° SSW
USA 267 3.6 23:28:48 10° ENE 23:35:17 67° NNW 23:41:45 10° WSW
Cosmos 2016 Rocket 4.5 23:31:54 10° N 23:37:54 56° ENE 23:43:08 14° SSE
ATLAS 5 CENTAUR R/B 4.2 23:38:53 10° WNW 23:41:53 19° NNW 23:45:14 10° NNE
Cosmos 2322 4.3 23:37:56 10° NW 23:43:10 39° WSW 23:45:45 25° SSW
Cosmos 1898 Rocket 3.7 23:39:25 10° NNW 23:44:26 51° WSW 23:47:02 27° S
SL-4 R/B 1.9 23:41:13 10° W 23:44:47 72° N 23:48:38 10° E
Cosmos 1151 Rocket 3.4 23:41:08 10° N 23:45:30 60° ENE 23:48:24 20° SSE
Cosmos 1937 Rocket 3.5 23:44:29 10° NNW 23:49:41 63° WSW 23:52:46 24° S
Cosmos 2221 4.4 23:47:32 10° NW 23:50:33 19° W 23:52:14 15° WSW
COSMOS 2455 2.8 23:46:26 10° NW 23:52:30 88° ENE 23:58:31 10° SE
Cosmos 1184 Rocket 2.4 23:53:51 10° NNW 23:56:54 81° W 23:57:49 41° S
